When you browse on this site, cookies collect data to enhance your experience and personalize the content and advertising you see.
Visit our Privacy Policy to learn more. By continuing to use the site, you agree to this use of cookies and data.
  • en France
  • Liste des pays
  • À 7 jours
  • Température de l'eau
  • Carte météo
  • Widgets météo
  • user-avatar
    Se connecter

    Météo par heure à Grantham

    Ce jour, 19 Août, Lundi

    Heure Température Précipitation Vent Pression Humidité
    00:00 +13°C° 0 mm 6 m/s 745 mmHg 80%
    01:00 +13°C° 0 mm 6 m/s 745 mmHg 82%
    02:00 +11°C° 0 mm 6 m/s 745 mmHg 84%
    03:00 +11°C° 0 mm 6 m/s 745 mmHg 86%
    04:00 +12°C° 0 mm 5 m/s 745 mmHg 87%
    05:00 +12°C° 0 mm 5 m/s 746 mmHg 88%
    06:00 +12°C° 0 mm 4 m/s 746 mmHg 89%
    07:00 +13°C° 0 mm 5 m/s 747 mmHg 83%
    08:00 +14°C° 0 mm 5 m/s 747 mmHg 77%
    09:00 +16°C° 0 mm 5 m/s 748 mmHg 71%
    10:00 +17°C° 0 mm 5 m/s 748 mmHg 65%
    11:00 +19°C° 0 mm 5 m/s 748 mmHg 60%
    12:00 +20°C° 0 mm 5 m/s 749 mmHg 54%
    13:00 +20°C° 0.3 mm 5 m/s 749 mmHg 55%
    14:00 +20°C° 0.3 mm 6 m/s 749 mmHg 56%
    15:00 +20°C° 0.3 mm 6 m/s 749 mmHg 57%
    16:00 +19°C° 0.2 mm 5 m/s 749 mmHg 59%
    17:00 +17°C° 0.2 mm 5 m/s 750 mmHg 62%
    18:00 +18°C° 0.2 mm 4 m/s 750 mmHg 64%
    19:00 +15°C° 0 mm 4 m/s 750 mmHg 68%
    20:00 +14°C° 0 mm 4 m/s 751 mmHg 72%
    21:00 +13°C° 0 mm 4 m/s 751 mmHg 76%
    22:00 +12°C° 0 mm 4 m/s 752 mmHg 78%
    23:00 +12°C° 0 mm 4 m/s 752 mmHg 80%

    Demain, 20 Août, Mardi

    Heure Température Précipitation Vent Pression Humidité
    00:00 +11°C° 0 mm 4 m/s 752 mmHg 82%
    01:00 +11°C° 0 mm 3 m/s 752 mmHg 84%
    02:00 +10°C° 0 mm 3 m/s 753 mmHg 85%
    03:00 +10°C° 0 mm 3 m/s 753 mmHg 87%
    04:00 +10°C° 0 mm 3 m/s 753 mmHg 86%
    05:00 +10°C° 0 mm 3 m/s 753 mmHg 85%
    06:00 +10°C° 0 mm 3 m/s 754 mmHg 84%
    07:00 +11°C° 0 mm 4 m/s 754 mmHg 78%
    08:00 +13°C° 0 mm 5 m/s 754 mmHg 72%
    09:00 +14°C° 0 mm 5 m/s 755 mmHg 65%
    10:00 +15°C° 0 mm 5 m/s 755 mmHg 63%
    11:00 +16°C° 0 mm 5 m/s 755 mmHg 61%
    12:00 +16°C° 0 mm 5 m/s 755 mmHg 59%
    13:00 +17°C° 0 mm 5 m/s 756 mmHg 58%
    14:00 +17°C° 0 mm 5 m/s 756 mmHg 57%
    15:00 +19°C° 0 mm 5 m/s 756 mmHg 56%
    16:00 +18°C° 0 mm 4 m/s 756 mmHg 58%
    17:00 +18°C° 0 mm 3 m/s 756 mmHg 61%
    18:00 +17°C° 0 mm 2 m/s 756 mmHg 63%
    19:00 +16°C° 0 mm 2 m/s 757 mmHg 70%
    20:00 +15°C° 0 mm 2 m/s 757 mmHg 77%
    21:00 +13°C° 0 mm 3 m/s 758 mmHg 84%
    22:00 +12°C° 0 mm 3 m/s 758 mmHg 86%
    23:00 +12°C° 0 mm 3 m/s 758 mmHg 88%

    Après-demain, 21 Août, Mercredi

    Heure Température Précipitation Vent Pression Humidité
    00:00 +12°C° 0 mm 3 m/s 758 mmHg 90%
    01:00 +12°C° 0 mm 3 m/s 758 mmHg 90%
    02:00 +11°C° 0 mm 3 m/s 758 mmHg 91%
    03:00 +11°C° 0 mm 3 m/s 758 mmHg 91%
    04:00 +11°C° 0 mm 3 m/s 758 mmHg 90%
    05:00 +12°C° 0 mm 3 m/s 758 mmHg 89%
    06:00 +12°C° 0 mm 3 m/s 758 mmHg 88%
    07:00 +13°C° 0 mm 3 m/s 758 mmHg 83%
    08:00 +15°C° 0 mm 4 m/s 758 mmHg 78%
    09:00 +17°C° 0 mm 4 m/s 758 mmHg 73%
    10:00 +18°C° 0 mm 4 m/s 757 mmHg 68%
    11:00 +19°C° 0 mm 5 m/s 757 mmHg 62%
    12:00 +20°C° 0 mm 5 m/s 757 mmHg 57%
    13:00 +20°C° 0 mm 5 m/s 756 mmHg 57%
    14:00 +20°C° 0 mm 6 m/s 756 mmHg 56%
    15:00 +21°C° 0 mm 6 m/s 756 mmHg 56%
    16:00 +20°C° 0.1 mm 5 m/s 756 mmHg 59%
    17:00 +19°C° 0.1 mm 5 m/s 755 mmHg 62%
    18:00 +18°C° 0.1 mm 4 m/s 755 mmHg 65%
    19:00 +17°C° 0 mm 4 m/s 755 mmHg 69%
    20:00 +17°C° 0 mm 4 m/s 755 mmHg 72%
    21:00 +15°C° 0 mm 4 m/s 755 mmHg 75%
    22:00 +15°C° 0 mm 4 m/s 755 mmHg 75%
    23:00 +14°C° 0 mm 4 m/s 755 mmHg 76%

    22 Août, Jeudi

    Heure Température Précipitation Vent Pression Humidité
    00:00 +14°C° 0 mm 4 m/s 755 mmHg 77%
    01:00 +14°C° 0.2 mm 4 m/s 755 mmHg 79%
    02:00 +14°C° 0.2 mm 5 m/s 754 mmHg 82%
    03:00 +13°C° 0.2 mm 5 m/s 754 mmHg 84%
    04:00 +13°C° 0.1 mm 4 m/s 754 mmHg 86%
    05:00 +13°C° 0.1 mm 4 m/s 755 mmHg 88%
    06:00 +13°C° 0.1 mm 4 m/s 755 mmHg 90%
    07:00 +14°C° 0 mm 4 m/s 755 mmHg 82%
    08:00 +15°C° 0 mm 4 m/s 755 mmHg 74%
    09:00 +17°C° 0 mm 4 m/s 756 mmHg 66%
    10:00 +18°C° 0 mm 4 m/s 756 mmHg 63%
    11:00 +19°C° 0 mm 4 m/s 756 mmHg 60%
    12:00 +20°C° 0 mm 4 m/s 756 mmHg 57%
    13:00 +20°C° 0 mm 4 m/s 756 mmHg 56%
    14:00 +21°C° 0 mm 4 m/s 755 mmHg 55%
    15:00 +21°C° 0 mm 5 m/s 755 mmHg 53%
    16:00 +20°C° 0 mm 4 m/s 755 mmHg 57%
    17:00 +20°C° 0 mm 4 m/s 755 mmHg 60%
    18:00 +19°C° 0 mm 3 m/s 755 mmHg 63%
    19:00 +18°C° 0 mm 3 m/s 756 mmHg 68%
    20:00 +17°C° 0 mm 3 m/s 756 mmHg 73%
    21:00 +16°C° 0 mm 3 m/s 756 mmHg 78%
    22:00 +16°C° 0 mm 3 m/s 756 mmHg 80%
    23:00 +16°C° 0 mm 3 m/s 756 mmHg 83%

    23 Août, Vendredi

    Heure Température Précipitation Vent Pression Humidité
    00:00 +16°C° 0 mm 3 m/s 756 mmHg 85%
    01:00 +14°C° 0 mm 4 m/s 756 mmHg 87%
    02:00 +14°C° 0 mm 4 m/s 755 mmHg 89%
    03:00 +14°C° 0 mm 4 m/s 755 mmHg 91%
    04:00 +14°C° 0 mm 4 m/s 755 mmHg 90%
    05:00 +14°C° 0 mm 4 m/s 755 mmHg 90%
    06:00 +14°C° 0 mm 4 m/s 755 mmHg 89%
    07:00 +15°C° 0 mm 4 m/s 755 mmHg 84%
    08:00 +18°C° 0 mm 4 m/s 756 mmHg 78%
    09:00 +19°C° 0 mm 5 m/s 756 mmHg 73%
    10:00 +20°C° 0 mm 5 m/s 755 mmHg 70%
    11:00 +21°C° 0 mm 5 m/s 755 mmHg 66%
    12:00 +22°C° 0 mm 4 m/s 755 mmHg 62%
    13:00 +23°C° 0.1 mm 4 m/s 755 mmHg 61%
    14:00 +23°C° 0.1 mm 4 m/s 755 mmHg 59%
    15:00 +23°C° 0.1 mm 4 m/s 754 mmHg 58%
    16:00 +23°C° 0 mm 4 m/s 754 mmHg 61%
    17:00 +22°C° 0 mm 3 m/s 754 mmHg 64%
    18:00 +23°C° 0 mm 2 m/s 754 mmHg 67%
    19:00 +21°C° 0 mm 2 m/s 754 mmHg 71%
    20:00 +19°C° 0 mm 2 m/s 754 mmHg 75%
    21:00 +19°C° 0 mm 1 m/s 754 mmHg 78%
    22:00 +19°C° 0 mm 1 m/s 754 mmHg 80%
    23:00 +18°C° 0 mm 1 m/s 754 mmHg 81%

    24 Août, Samedi

    Heure Température Précipitation Vent Pression Humidité
    00:00 +18°C° 0 mm 1 m/s 754 mmHg 83%
    01:00 +18°C° 0 mm 1 m/s 754 mmHg 84%
    02:00 +16°C° 0 mm 1 m/s 753 mmHg 85%
    03:00 +16°C° 0 mm 1 m/s 753 mmHg 86%
    04:00 +16°C° 0 mm 1 m/s 753 mmHg 86%
    05:00 +16°C° 0 mm 1 m/s 753 mmHg 86%
    06:00 +16°C° 0 mm 1 m/s 753 mmHg 86%
    07:00 +17°C° 0 mm 2 m/s 753 mmHg 79%
    08:00 +19°C° 0 mm 2 m/s 753 mmHg 73%
    09:00 +20°C° 0 mm 2 m/s 752 mmHg 66%
    10:00 +22°C° 0 mm 3 m/s 752 mmHg 59%
    11:00 +24°C° 0 mm 3 m/s 752 mmHg 52%
    12:00 +25°C° 0 mm 3 m/s 752 mmHg 45%
    13:00 +26°C° 0 mm 3 m/s 751 mmHg 44%
    14:00 +26°C° 0 mm 3 m/s 751 mmHg 43%
    15:00 +26°C° 0 mm 3 m/s 751 mmHg 41%
    16:00 +26°C° 0 mm 3 m/s 750 mmHg 46%
    17:00 +25°C° 0 mm 2 m/s 750 mmHg 52%
    18:00 +24°C° 0 mm 2 m/s 750 mmHg 57%
    19:00 +23°C° 0 mm 2 m/s 750 mmHg 60%
    20:00 +20°C° 0 mm 2 m/s 750 mmHg 64%
    21:00 +19°C° 0 mm 3 m/s 750 mmHg 67%
    22:00 +19°C° 0 mm 2 m/s 750 mmHg 70%
    23:00 +18°C° 0 mm 2 m/s 749 mmHg 72%
    Voir plus